Location: Kelshall
(52.0000°N, 0.0500°W)
Time: 23:25:54
(UTC+00:00)

ATLAS 3B R/B - Pass Details

Date: 18 September 2020
Orbit: 1016 x 1179 km, 63.8° (Epoch: 28 October)

Event Time Altitude Azimuth Distance (km) Brightness Sun altitude
Rises 23:10:48 0° 311° (NW) 3,847 6.3 -35.8°
Reaches altitude 10° 23:13:54 10° 299° (WNW) 2,913 5.4 -35.9°
Enters shadow 23:17:17 22° 271° (W) 2,204 4.4 -36.0°
